DW9439 Weather Reports


Display with metric or nautical units.
time (UTC)temp
F
wind
direction
speed
MPH
gust
MPH
rain 1hr
in
rain 24hr
in
rain mn
in
humidity
%
barometer
mb
20260507180322 70 271 15.0 22.0 0.00 0.07 0.00 33 1025.8
20260507175544 69 264 15.0 23.0 0.00 0.07 0.00 32 1025.8
20260507175243 69 259 15.0 23.0 0.00 0.07 0.00 31 1025.9
20260507174939 69 269 15.0 23.0 0.00 0.07 0.00 33 1026.0
20260507174207 68 290 14.0 23.0 0.00 0.08 0.00 37 1026.1
20260507173453 69 275 13.0 21.0 0.00 0.09 0.00 38 1026.2
20260507173152 68 285 14.0 21.0 0.00 0.09 0.00 39 1026.2
20260507172842 68 267 15.0 21.0 0.00 0.09 0.00 40 1026.2
20260507172541 67 279 15.0 21.0 0.00 0.09 0.00 40 1026.3
20260507172241 67 279 14.0 21.0 0.00 0.10 0.00 36 1026.3
20260507171928 67 279 13.0 20.0 0.00 0.10 0.00 43 1026.4
20260507171623 67 277 12.0 20.0 0.00 0.11 0.00 44 1026.4
20260507171326 67 288 13.0 20.0 0.00 0.11 0.00 42 1026.5
20260507171019 66 267 13.0 19.0 0.00 0.11 0.00 44 1026.6
20260507170721 66 282 14.0 22.0 0.00 0.12 0.00 47 1026.6
20260507170416 65 277 14.0 22.0 0.00 0.12 0.00 48 1026.6
20260507170109 65 266 13.0 22.0 0.00 0.13 0.00 49 1026.6
20260507165803 65 265 13.0 22.0 0.00 0.13 0.00 46 1026.6
20260507165032 64 271 14.0 22.0 0.00 0.15 0.00 49 1026.7
20260507164312 63 277 13.0 19.0 0.00 0.17 0.00 52 1026.9
20260507164004 63 281 13.0 19.0 0.00 0.17 0.00 53 1027.0
20260507163702 63 279 13.0 19.0 0.00 0.18 0.00 55 1026.9
20260507163400 63 281 12.0 21.0 0.00 0.18 0.00 58 1027.0
20260507163053 62 283 13.0 21.0 0.00 0.19 0.00 55 1026.9
20260507162743 62 271 13.0 21.0 0.00 0.19 0.00 56 1027.0
20260507162436 61 287 14.0 21.0 0.00 0.20 0.00 57 1027.0
20260507162123 61 264 14.0 21.0 0.00 0.20 0.00 56 1027.0
20260507161811 60 264 14.0 21.0 0.00 0.20 0.00 59 1027.0
20260507161512 60 275 14.0 20.0 0.00 0.21 0.00 60 1027.1
20260507161158 60 265 13.0 20.0 0.00 0.21 0.00 59 1027.1
20260507160852 60 265 13.0 20.0 0.00 0.22 0.00 60 1027.2
20260507160539 60 261 13.0 20.0 0.00 0.22 0.00 60 1027.2
20260507160227 59 279 13.0 20.0 0.00 0.22 0.00 60 1027.3
20260507155454 58 273 14.0 20.0 0.00 0.23 0.00 62 1027.4
20260507155152 58 280 14.0 20.0 0.00 0.23 0.00 60 1027.5
20260507154855 57 276 13.0 19.0 0.00 0.24 0.00 64 1027.4
20260507154544 57 283 14.0 21.0 0.00 0.25 0.00 63 1027.5
20260507154233 56 287 14.0 21.0 0.00 0.25 0.00 66 1027.6
20260507153923 56 275 15.0 21.0 0.00 0.26 0.00 64 1027.7
20260507153623 55 281 15.0 21.0 0.00 0.26 0.00 66 1027.8
20260507153320 55 273 14.0 21.0 0.00 0.27 0.00 67 1027.8
20260507152558 54 266 13.0 20.0 0.00 0.28 0.00 68 1027.9
20260507152250 54 274 13.0 21.0 0.00 0.29 0.00 70 1027.9
20260507151945 53 282 13.0 21.0 0.00 0.29 0.00 69 1027.9
20260507151215 52 280 14.0 21.0 0.00 0.30 0.00 72 1028.0
20260507150906 52 276 14.0 21.0 0.00 0.30 0.00 72 1028.2
20260507150606 51 273 14.0 21.0 0.00 0.31 0.00 71 1028.1
20260507150304 51 275 13.0 24.0 0.00 0.31 0.00 72 1028.1
20260507150008 51 279 14.0 24.0 0.00 0.31 0.00 74 1028.2
20260507145705 51 286 15.0 24.0 0.00 0.31 0.00 74 1028.2
20260507145400 50 278 15.0 24.0 0.00 0.31 0.00 75 1028.2
20260507145059 50 275 15.0 24.0 0.00 0.31 0.00 75 1028.2
20260507144800 50 278 15.0 24.0 0.00 0.31 0.00 75 1028.3
20260507144447 49 285 15.0 24.0 0.00 0.31 0.00 76 1028.3
20260507143301 48 275 16.0 23.0 0.00 0.31 0.00 78 1028.3
20260507142959 47 281 16.0 23.0 0.00 0.31 0.00 78 1028.3
20260507142647 47 286 16.0 23.0 0.00 0.31 0.00 78 1028.4
20260507142336 47 286 14.0 23.0 0.00 0.31 0.00 80 1028.4
20260507142031 47 271 15.0 23.0 0.00 0.31 0.00 79 1028.3
20260507141304 46 284 15.0 21.0 0.00 0.31 0.00 81 1028.4
20260507140540 45 276 14.0 21.0 0.00 0.31 0.00 83 1028.5
20260507135828 44 279 12.0 21.0 0.00 0.31 0.00 83 1028.5
20260507135521 44 279 13.0 21.0 0.00 0.31 0.00 85 1028.6
20260507135213 44 281 14.0 21.0 0.00 0.31 0.00 85 1028.5
20260507134912 43 287 14.0 21.0 0.00 0.31 0.00 84 1028.6
20260507134603 43 278 13.0 20.0 0.00 0.31 0.00 85 1028.6
20260507134301 43 273 13.0 19.0 0.00 0.31 0.00 85 1028.6
20260507133954 42 273 13.0 19.0 0.00 0.31 0.00 85 1028.6
20260507133644 42 275 13.0 20.0 0.00 0.31 0.00 86 1028.5
20260507133344 42 276 13.0 20.0 0.00 0.31 0.00 86 1028.6
20260507132608 41 272 13.0 20.0 0.00 0.31 0.00 87 1028.6
20260507130959 39 266 12.0 17.0 0.00 0.31 0.00 88 1028.6
20260507130650 39 268 12.0 17.0 0.00 0.31 0.00 89 1028.6
20260507130348 39 263 11.0 17.0 0.00 0.31 0.00 89 1028.6
20260507130049 39 266 11.0 17.0 0.00 0.31 0.00 89 1028.6
20260507125752 39 265 11.0 17.0 0.00 0.31 0.00 89 1028.6
20260507125449 38 266 11.0 17.0 0.00 0.31 0.00 89 1028.6
20260507124254 37 271 11.0 18.0 0.00 0.31 0.00 89 1028.6
20260507123948 37 272 11.0 18.0 0.00 0.31 0.00 89 1028.6
20260507123635 37 269 10.0 18.0 0.00 0.31 0.00 89 1028.6
20260507123322 37 268 10.0 15.0 0.00 0.31 0.00 89 1028.6
20260507123011 36 267 11.0 15.0 0.00 0.31 0.00 89 1028.7
20260507122701 36 265 10.0 15.0 0.00 0.31 0.00 89 1028.6
20260507122349 36 265 10.0 15.0 0.00 0.31 0.00 89 1028.6
20260507122049 36 267 10.0 15.0 0.00 0.31 0.00 89 1028.7
20260507121753 36 267 11.0 15.0 0.00 0.31 0.00 89 1028.7
20260507121442 36 269 11.0 15.0 0.00 0.31 0.00 89 1028.6
20260507121138 36 269 11.0 17.0 0.00 0.31 0.00 89 1028.5
20260507120831 36 273 11.0 17.0 0.00 0.31 0.00 89 1028.5
20260507120528 36 273 11.0 17.0 0.00 0.31 0.00 89 1028.4
20260507115815 36 274 11.0 18.0 0.00 0.31 0.00 89 1028.7
20260507115508 36 275 11.0 18.0 0.00 0.31 0.00 89 1028.7
20260507114301 36 274 12.0 18.0 0.00 0.31 0.00 89 1028.8
20260507114002 36 276 11.0 17.0 0.00 0.31 0.00 89 1028.8
20260507113655 36 275 11.0 17.0 0.00 0.31 0.00 90 1028.8
20260507113353 36 274 11.0 17.0 0.00 0.31 0.00 90 1029.0
20260507113047 36 275 11.0 17.0 0.00 0.31 0.00 90 1028.9
20260507112747 36 273 10.0 17.0 0.00 0.31 0.00 90 1028.9
20260507112444 35 273 10.0 17.0 0.00 0.31 0.00 90 1028.8
20260507112143 35 273 10.0 14.0 0.00 0.31 0.00 90 1028.9
20260507111830 35 272 10.0 14.0 0.00 0.31 0.00 91 1028.9
20260507111525 35 272 9.0 14.0 0.00 0.31 0.00 91 1028.8
20260507111220 35 271 9.0 14.0 0.00 0.31 0.00 91 1028.9
20260507110054 35 271 8.0 14.0 0.00 0.31 0.00 91 1029.1
20260507105331 35 271 9.0 14.0 0.00 0.31 0.00 91 1029.1
20260507104608 35 277 8.0 13.0 0.00 0.31 0.00 91 1029.4
20260507104301 35 277 8.0 13.0 0.00 0.31 0.00 91 1029.5
20260507103540 35 279 9.0 13.0 0.00 0.31 0.00 92 1029.6
20260507103233 35 279 9.0 13.0 0.00 0.31 0.00 92 1029.6
20260507102931 35 279 8.0 12.0 0.00 0.31 0.00 92 1029.7
20260507102629 35 279 8.0 13.0 0.00 0.31 0.00 92 1029.6
20260507102331 35 279 8.0 13.0 0.00 0.31 0.00 92 1029.6
20260507102031 35 279 8.0 13.0 0.00 0.31 0.00 92 1029.6
20260507101726 35 279 9.0 13.0 0.00 0.31 0.00 92 1029.7
20260507101418 35 280 9.0 13.0 0.00 0.31 0.00 92 1029.7
20260507101112 35 281 9.0 13.0 0.00 0.31 0.00 92 1029.7
20260507100805 35 284 8.0 13.0 0.00 0.31 0.00 92 1029.9
20260507100455 35 286 8.0 12.0 0.00 0.31 0.00 92 1029.9
20260507095258 34 289 8.0 12.0 0.00 0.31 0.00 93 1030.0
20260507094543 34 291 8.0 12.0 0.00 0.32 0.00 93 1030.0
20260507094243 34 292 8.0 12.0 0.00 0.32 0.00 93 1030.0
20260507093936 34 294 8.0 11.0 0.00 0.32 0.00 93 1030.0
20260507093633 34 296 8.0 11.0 0.00 0.33 0.00 93 1030.2
20260507093322 34 299 7.0 11.0 0.00 0.33 0.00 93 1030.1
20260507092557 34 306 7.0 11.0 0.00 0.33 0.00 93 1030.2
20260507092254 34 306 7.0 11.0 0.00 0.33 0.00 93 1030.3
20260507091957 34 309 7.0 11.0 0.00 0.33 0.00 93 1030.2
20260507091646 34 311 7.0 11.0 0.00 0.33 0.00 93 1030.2
20260507090917 34 313 7.0 11.0 0.00 0.33 0.00 93 1030.3
20260507090611 34 315 7.0 11.0 0.00 0.33 0.00 94 1030.4
20260507090257 34 319 7.0 11.0 0.00 0.33 0.00 94 1030.5
20260507085948 34 324 7.0 11.0 0.00 0.33 0.00 94 1030.6
20260507085637 34 328 7.0 13.0 0.00 0.34 0.00 94 1030.6
20260507084921 33 346 8.0 13.0 0.00 0.34 0.00 94 1030.6
20260507084622 33 355 8.0 13.0 0.00 0.34 0.00 93 1030.7
20260507084321 33 0 7.0 13.0 0.00 0.34 0.00 94 1030.7
20260507084016 33 59 7.0 13.0 0.00 0.34 0.00 94 1030.8
20260507083259 33 70 6.0 9.0 0.00 0.34 0.00 94 1030.7
20260507082954 33 71 6.0 9.0 0.00 0.34 0.00 94 1030.9
20260507082641 33 71 6.0 9.0 0.00 0.34 0.00 93 1030.9
20260507082338 33 71 6.0 9.0 0.00 0.34 0.00 93 1031.0
20260507082025 33 71 6.0 9.0 0.00 0.34 0.00 93 1031.0
20260507081301 33 71 5.0 8.0 0.00 0.35 0.00 93 1031.2
20260507080957 33 71 5.0 8.0 0.00 0.35 0.00 93 1031.2
20260507080654 33 71 5.0 8.0 0.00 0.35 0.00 93 1031.3
20260507080357 33 71 6.0 9.0 0.00 0.35 0.00 93 1031.3
20260507080050 33 71 6.0 9.0 0.00 0.35 0.00 93 1031.4
20260507075752 33 71 6.0 9.0 0.00 0.35 0.00 93 1031.3
20260507075445 33 71 6.0 9.0 0.00 0.35 0.00 94 1031.5
20260507075133 33 71 5.0 9.0 0.00 0.35 0.00 94 1031.5
20260507074827 33 71 5.0 9.0 0.00 0.36 0.00 94 1031.6
20260507074521 33 71 6.0 9.0 0.00 0.36 0.00 93 1031.7
20260507074214 33 71 5.0 8.0 0.00 0.36 0.00 93 1031.7
20260507073902 33 71 5.0 8.0 0.00 0.36 0.00 93 1031.6
20260507073553 33 71 5.0 8.0 0.00 0.36 0.00 93 1031.6
20260507073243 33 71 5.0 8.0 0.00 0.36 0.00 94 1031.6
20260507072943 33 71 5.0 8.0 0.00 0.36 0.00 93 1031.8
20260507072633 33 71 5.0 7.0 0.00 0.36 0.00 94 1031.8
20260507072324 33 71 5.0 7.0 0.00 0.36 0.00 94 1031.8
20260507071601 33 71 4.0 7.0 0.00 0.36 0.00 94 1031.9
20260507071301 32 71 4.0 6.0 0.00 0.36 0.00 93 1031.9
20260507070958 32 71 4.0 6.0 0.00 0.36 0.00 93 1031.9
20260507070653 32 71 4.0 6.0 0.00 0.36 0.00 93 1032.0
20260507070348 32 71 4.0 6.0 0.00 0.36 0.00 93 1032.0
20260507070052 32 71 4.0 6.0 0.00 0.36 0.00 93 1032.0
20260507065739 32 71 4.0 6.0 0.00 0.36 0.00 93 1032.0
20260507065434 32 71 4.0 6.0 0.00 0.36 0.00 93 1032.1
20260507065138 32 71 4.0 6.0 0.00 0.37 0.00 93 1032.1
20260507064838 32 71 3.0 6.0 0.00 0.37 0.00 93 1032.1
20260507064536 32 71 3.0 6.0 0.00 0.37 0.00 93 1032.3
20260507064223 32 71 4.0 6.0 0.00 0.37 0.00 93 1032.2
20260507063927 32 71 4.0 6.0 0.00 0.37 0.00 93 1032.3
20260507063620 33 71 4.0 8.0 0.00 0.37 0.00 93 1032.2
20260507063315 33 71 5.0 8.0 0.00 0.37 0.00 93 1032.3
20260507062554 33 71 5.0 8.0 0.00 0.37 0.00 93 1032.4
20260507062248 33 71 5.0 8.0 0.00 0.38 0.00 93 1032.3
20260507061517 33 71 5.0 8.0 0.00 0.38 0.00 93 1032.4
20260507060747 33 71 6.0 8.0 0.00 0.38 0.38 93 1032.6
20260507060451 34 71 6.0 8.0 0.00 0.38 0.38 93 1032.6
20260507060147 34 71 6.0 8.0 0.00 0.38 0.38 93 1032.6
20260507055836 33 71 5.0 8.0 0.00 0.38 0.38 93 1032.5
20260507055103 33 71 5.0 8.0 0.00 0.38 0.38 93 1032.7
20260507054759 33 71 5.0 8.0 0.00 0.38 0.38 93 1032.7
20260507054447 33 71 5.0 6.0 0.00 0.38 0.38 93 1032.7
20260507054145 33 71 4.0 6.0 0.00 0.38 0.38 93 1032.7
20260507053415 33 71 4.0 7.0 0.00 0.38 0.38 92 1032.7
20260507053118 33 71 4.0 7.0 0.00 0.38 0.38 92 1032.6
20260507052355 33 71 4.0 7.0 0.00 0.38 0.38 92 1032.6
20260507052047 33 71 4.0 7.0 0.00 0.38 0.38 93 1032.7
20260507051744 33 71 4.0 7.0 0.00 0.38 0.38 92 1032.8
20260507051447 33 71 4.0 6.0 0.00 0.38 0.38 92 1032.7
20260507051145 34 71 4.0 6.0 0.00 0.38 0.38 92 1032.7
20260507050843 34 71 4.0 6.0 0.00 0.38 0.38 92 1032.7
20260507050531 34 71 4.0 6.0 0.00 0.38 0.38 92 1032.7
20260507050233 34 71 4.0 6.0 0.00 0.38 0.38 92 1032.8
20260507045933 34 71 4.0 6.0 0.00 0.38 0.38 92 1032.7
20260507045634 34 71 4.0 7.0 0.00 0.39 0.38 92 1032.7
20260507045322 34 71 4.0 7.0 0.00 0.39 0.38 92 1032.8
20260507045009 34 71 4.0 7.0 0.00 0.39 0.38 92 1032.7
20260507044228 35 71 5.0 7.0 0.00 0.40 0.38 92 1032.8
20260507043924 35 71 5.0 7.0 0.00 0.40 0.38 92 1032.8
20260507042743 35 71 5.0 7.0 0.00 0.42 0.38 92 1032.8
20260507042429 35 71 5.0 7.0 0.00 0.42 0.38 92 1032.8
20260507042132 35 71 4.0 7.0 0.00 0.42 0.38 93 1032.9
20260507041400 35 71 4.0 6.0 0.00 0.43 0.38 92 1033.0
20260507041050 35 71 4.0 6.0 0.00 0.43 0.38 92 1033.0
20260507040745 35 71 5.0 7.0 0.00 0.44 0.38 92 1033.0
20260507040443 35 71 5.0 7.0 0.00 0.44 0.38 92 1033.0
20260507040144 35 71 5.0 7.0 0.00 0.44 0.38 92 1033.0
20260507035833 35 71 5.0 7.0 0.00 0.44 0.38 92 1033.0
20260507035533 35 71 5.0 7.0 0.00 0.45 0.38 92 1032.9
20260507034803 35 71 4.0 6.0 0.00 0.46 0.38 92 1033.0
20260507034456 35 71 4.0 6.0 0.00 0.46 0.38 92 1032.9
20260507034200 35 71 3.0 6.0 0.00 0.47 0.38 92 1033.0
20260507033854 35 71 3.0 6.0 0.00 0.47 0.38 92 1032.9
20260507033558 35 71 3.0 6.0 0.00 0.47 0.38 92 1032.9
20260507033254 35 71 3.0 6.0 0.00 0.48 0.38 92 1032.9
20260507032953 36 71 4.0 6.0 0.00 0.49 0.38 92 1032.9
20260507032642 36 71 4.0 6.0 0.00 0.49 0.38 92 1032.8
20260507032340 35 71 4.0 5.0 0.00 0.49 0.38 92 1032.8
20260507032036 35 71 3.0 5.0 0.00 0.50 0.38 91 1032.8
20260507031733 35 71 2.0 5.0 0.00 0.50 0.38 91 1032.8
20260507031434 35 71 2.0 4.0 0.00 0.50 0.38 91 1032.8
20260507031124 35 71 2.0 4.0 0.00 0.51 0.38 91 1032.8
20260507030823 36 71 2.0 4.0 0.00 0.51 0.38 91 1032.8
20260507030513 36 71 2.0 5.0 0.00 0.51 0.38 91 1032.8
20260507030205 36 71 3.0 5.0 0.00 0.52 0.38 91 1032.8
20260507025901 36 71 3.0 5.0 0.00 0.52 0.38 91 1032.6
20260507025549 36 71 3.0 5.0 0.00 0.53 0.38 91 1032.6
20260507024817 37 71 4.0 5.0 0.00 0.54 0.38 91 1032.6
20260507024505 37 71 4.0 6.0 0.00 0.55 0.38 91 1032.6
20260507023320 37 71 4.0 6.0 0.00 0.57 0.38 91 1032.6
20260507022559 37 71 4.0 6.0 0.00 0.58 0.38 90 1032.4
20260507022306 37 71 4.0 5.0 0.00 0.59 0.38 90 1032.4
20260507021954 37 71 4.0 5.0 0.00 0.59 0.38 90 1032.4
20260507021643 38 71 3.0 5.0 0.00 0.59 0.38 90 1032.3
20260507021332 38 71 3.0 5.0 0.00 0.59 0.38 90 1032.1
20260507021020 38 71 2.0 4.0 0.00 0.59 0.38 90 1032.1
20260507020722 38 71 2.0 4.0 0.00 0.59 0.38 89 1032.0
20260507015958 39 71 3.0 5.0 0.00 0.60 0.38 89 1032.1
20260507015647 39 71 3.0 5.0 0.00 0.60 0.38 90 1032.0
20260507015344 39 71 3.0 5.0 0.00 0.60 0.38 89 1032.1
20260507015043 39 71 3.0 5.0 0.00 0.60 0.38 89 1032.2
20260507014743 40 71 4.0 5.0 0.00 0.60 0.38 89 1032.0
20260507013548 41 71 4.0 6.0 0.00 0.60 0.38 89 1032.0
20260507013251 41 71 4.0 8.0 0.00 0.60 0.38 89 1032.0
20260507012942 41 71 4.0 8.0 0.00 0.60 0.38 89 1032.1
20260507012632 41 71 5.0 8.0 0.00 0.60 0.38 89 1032.0
20260507012336 41 71 5.0 8.0 0.00 0.60 0.38 89 1032.1
20260507012034 41 71 5.0 8.0 0.00 0.60 0.38 88 1032.0
20260507011736 41 71 5.0 8.0 0.00 0.60 0.38 89 1031.9
20260507011440 41 71 5.0 8.0 0.00 0.60 0.38 88 1031.9
20260507011134 41 71 5.0 8.0 0.00 0.60 0.38 88 1031.9
20260507010837 42 71 5.0 8.0 0.00 0.60 0.38 88 1031.8
20260507010523 42 73 6.0 8.0 0.00 0.60 0.38 89 1031.9
20260507010225 42 73 6.0 8.0 0.00 0.60 0.38 89 1031.9
20260507005927 42 73 6.0 8.0 0.00 0.60 0.38 89 1032.0
20260507005631 42 74 6.0 8.0 0.00 0.60 0.38 89 1031.9
20260507005330 42 74 6.0 8.0 0.00 0.60 0.38 89 1031.9
20260507005018 41 74 6.0 8.0 0.00 0.60 0.38 88 1031.9
20260507004713 42 74 6.0 8.0 0.00 0.60 0.38 89 1031.9
20260507004416 42 74 6.0 8.0 0.00 0.60 0.38 89 1031.9
20260507003650 42 74 6.0 9.0 0.00 0.60 0.38 90 1031.9
20260507003342 42 75 5.0 9.0 0.00 0.60 0.38 90 1031.9
20260507003037 42 75 5.0 9.0 0.00 0.60 0.38 90 1031.9
20260507002737 42 75 5.0 9.0 0.00 0.60 0.38 90 1031.9
20260507002433 41 75 6.0 9.0 0.00 0.60 0.38 90 1031.8
20260507002119 41 74 6.0 9.0 0.00 0.60 0.38 89 1031.9
20260507001349 41 74 5.0 8.0 0.00 0.60 0.38 90 1032.0
20260507001048 41 74 5.0 8.0 0.00 0.60 0.38 89 1032.0
20260507000746 41 74 5.0 8.0 0.00 0.60 0.38 90 1031.9
20260507000033 42 73 5.0 8.0 0.00 0.60 0.38 90 1031.9
20260506235733 42 73 5.0 8.0 0.00 0.60 0.38 90 1032.0
20260506235432 42 73 5.0 8.0 0.00 0.60 0.38 90 1032.0
20260506235135 42 74 5.0 8.0 0.00 0.60 0.38 91 1032.1
20260506234836 42 74 4.0 8.0 0.00 0.60 0.38 92 1032.1
20260506234530 41 74 5.0 8.0 0.00 0.60 0.38 90 1032.2
20260506234225 41 74 4.0 8.0 0.00 0.60 0.38 90 1032.2
20260506233912 41 74 4.0 8.0 0.00 0.60 0.38 90 1032.3
20260506233600 41 74 4.0 6.0 0.00 0.60 0.38 91 1032.2
20260506233254 41 74 4.0 6.0 0.00 0.60 0.38 91 1032.1
20260506232533 41 74 3.0 8.0 0.00 0.60 0.38 91 1032.2
20260506232235 41 74 3.0 8.0 0.00 0.60 0.38 91 1032.2
20260506231505 41 74 5.0 8.0 0.00 0.60 0.38 91 1032.4
20260506231151 41 74 5.0 8.0 0.00 0.60 0.38 91 1032.6
20260506230849 41 74 4.0 7.0 0.00 0.60 0.38 91 1032.6
20260506230549 41 74 5.0 7.0 0.00 0.60 0.38 91 1032.5
20260506230253 41 74 4.0 7.0 0.00 0.60 0.38 92 1032.3
20260506225521 40 74 4.0 7.0 0.00 0.58 0.38 91 1032.1
20260506225222 40 74 4.0 7.0 0.00 0.58 0.37 91 1032.2
20260506224922 40 74 4.0 6.0 0.04 0.58 0.37 91 1032.2
20260506224619 40 74 3.0 6.0 0.05 0.58 0.37 91 1032.1
20260506224322 40 74 3.0 6.0 0.05 0.58 0.37 91 1032.1
20260506224008 40 74 4.0 6.0 0.05 0.58 0.37 91 1032.0
20260506223701 40 74 4.0 6.0 0.05 0.58 0.37 91 1032.0
20260506223357 40 74 4.0 6.0 0.04 0.58 0.36 91 1032.1
20260506223054 40 74 4.0 6.0 0.04 0.58 0.36 91 1032.3
20260506222744 40 74 4.0 6.0 0.04 0.58 0.36 91 1032.3
20260506222031 40 74 4.0 6.0 0.00 0.58 0.35 91 1032.3
20260506221733 40 74 4.0 6.0 0.00 0.58 0.35 91 1032.2
20260506221012 40 74 4.0 6.0 0.00 0.58 0.35 92 1032.4
20260506220706 40 74 4.0 6.0 0.00 0.57 0.34 92 1032.3
20260506215939 40 74 4.0 6.0 0.00 0.57 0.34 92 1032.4
20260506215625 40 74 3.0 6.0 0.00 0.58 0.34 92 1032.2
20260506214015 40 74 1.0 5.0 0.00 0.59 0.34 92 1032.3
20260506213702 40 74 1.0 4.0 0.00 0.59 0.34 93 1032.2
20260506212949 40 74 1.0 4.0 0.00 0.59 0.34 93 1032.2
20260506212649 40 74 1.0 4.0 0.00 0.59 0.34 93 1032.2
20260506212342 40 74 1.0 4.0 0.00 0.59 0.34 93 1032.1
20260506212034 40 74 2.0 0.0 0.00 0.59 0.34 93 1032.2
20260506211728 40 74 1.0 4.0 0.00 0.59 0.34 93 1032.2
20260506211417 40 74 1.0 4.0 0.00 0.59 0.34 93 1032.3
20260506211113 40 74 0.0 4.0 0.00 0.59 0.34 93 1032.3
20260506210816 40 74 0.0 0.0 0.00 0.59 0.34 93 1032.3
20260506210504 40 74 0.0 5.0 0.00 0.59 0.34 93 1032.2
20260506210156 40 74 0.0 5.0 0.00 0.59 0.34 93 1032.2
20260506205843 40 74 1.0 5.0 0.00 0.59 0.34 93 1032.3
20260506205539 40 74 0.0 5.0 0.00 0.59 0.34 93 1032.3
20260506205226 40 74 0.0 5.0 0.00 0.59 0.34 93 1032.3
20260506204921 40 74 0.0 0.0 0.00 0.59 0.34 94 1032.3
20260506204617 40 74 0.0 5.0 0.00 0.59 0.34 94 1032.2
20260506204308 40 74 0.0 4.0 0.00 0.59 0.34 93 1032.2
20260506204001 39 74 1.0 4.0 0.00 0.59 0.34 93 1032.2
20260506203648 39 74 1.0 4.0 0.00 0.59 0.34 93 1032.2
20260506203348 39 74 1.0 5.0 0.00 0.59 0.34 93 1032.2
20260506203043 40 74 1.0 5.0 0.00 0.59 0.34 94 1032.2
20260506202742 39 74 1.0 0.0 0.00 0.59 0.34 93 1032.4
20260506202440 39 74 3.0 0.0 0.00 0.59 0.34 93 1032.3
20260506202138 39 74 3.0 5.0 0.00 0.59 0.34 93 1032.4
20260506201840 39 74 2.0 5.0 0.00 0.59 0.34 94 1032.4
20260506201533 39 74 2.0 5.0 0.00 0.59 0.33 94 1032.4
20260506201222 39 74 2.0 5.0 0.00 0.59 0.33 93 1032.4
20260506200920 39 74 2.0 5.0 0.00 0.59 0.33 93 1032.3
20260506200617 40 74 2.0 5.0 0.00 0.59 0.33 94 1032.3
20260506200305 40 74 1.0 5.0 0.00 0.59 0.33 94 1032.3
20260506200008 40 74 0.0 4.0 0.00 0.59 0.33 94 1032.2
20260506195706 40 74 0.0 5.0 0.00 0.59 0.33 94 1032.2
20260506195352 39 74 1.0 5.0 0.00 0.59 0.33 94 1032.3
20260506195054 39 74 1.0 5.0 0.00 0.59 0.33 94 1032.1
20260506194754 39 74 1.0 5.0 0.00 0.59 0.33 93 1032.1
20260506194440 39 74 1.0 5.0 0.00 0.59 0.33 94 1032.2
20260506194138 39 74 1.0 5.0 0.00 0.59 0.33 94 1032.2
20260506193827 39 74 1.0 5.0 0.00 0.59 0.33 94 1032.2
20260506193523 40 74 1.0 5.0 0.00 0.59 0.33 94 1032.2
20260506193226 39 74 1.0 5.0 0.00 0.59 0.33 94 1032.2
20260506192925 39 74 1.0 5.0 0.00 0.59 0.33 94 1032.2
20260506192159 39 74 3.0 7.0 0.00 0.59 0.33 94 1032.0
20260506191848 39 74 3.0 7.0 0.00 0.59 0.33 94 1032.0
20260506191548 39 74 3.0 7.0 0.00 0.59 0.33 94 1031.9
20260506191246 40 74 3.0 7.0 0.00 0.59 0.33 94 1032.0
20260506190937 40 74 2.0 7.0 0.00 0.59 0.33 94 1032.1
20260506190209 39 74 1.0 6.0 0.00 0.59 0.33 94 1032.2
20260506185907 39 74 2.0 6.0 0.00 0.59 0.33 94 1032.2
20260506185605 39 74 2.0 6.0 0.00 0.58 0.32 94 1032.2
20260506184840 39 74 1.0 5.0 0.00 0.58 0.32 94 1032.4
20260506184532 39 74 0.0 5.0 0.00 0.58 0.32 94 1032.4
20260506184234 39 74 0.0 3.0 0.00 0.58 0.32 94 1032.5
20260506183925 39 74 0.0 2.0 0.00 0.58 0.32 94 1032.4
20260506183616 39 74 1.0 4.0 0.00 0.58 0.32 94 1032.5
20260506183305 39 74 1.0 4.0 0.00 0.58 0.32 94 1032.5
20260506183001 38 74 1.0 4.0 0.00 0.58 0.32 94 1032.5
20260506182658 38 74 1.0 4.0 0.00 0.58 0.32 94 1032.6
20260506182344 38 74 1.0 4.0 0.00 0.57 0.32 94 1032.7
20260506182042 38 74 1.0 4.0 0.00 0.57 0.31 94 1032.7
20260506181737 38 74 1.0 4.0 0.00 0.57 0.31 94 1032.7
20260506181425 38 74 1.0 5.0 0.00 0.57 0.31 94 1032.7
20260506181112 38 74 1.0 5.0 0.00 0.57 0.31 94 1032.7
20260506180814 37 74 1.0 5.0 0.00 0.57 0.31 94 1032.7
20260506180516 37 74 1.0 6.0 0.00 0.57 0.31 94 1032.7